FW6791 Weather Reports


time (UTC)temp
C
wind
direction
speed
KPH
gust
KPH
rain 1hr
cm
rain 24hr
cm
rain mn
cm
humidity
%
barometer
mb
20260506025733 7 128 3.2 3.2 0.00 1.60 1.60 98 1011.8
20260506025230 7 45 4.8 11.3 0.00 1.60 1.60 98 1011.5
20260506024727 7 59 4.8 9.7 0.00 1.60 1.60 98 1011.3
20260506024223 7 71 6.4 11.3 0.00 1.60 1.60 98 1011.2
20260506023719 7 153 3.2 4.8 0.00 1.60 1.60 98 1011.3
20260506023217 7 119 6.4 6.4 0.00 1.60 1.60 98 1011.0
20260506022713 7 113 4.8 6.4 0.00 1.60 1.60 97 1011.3
20260506022211 7 145 3.2 3.2 0.00 1.60 1.60 97 1011.2
20260506021709 7 115 3.2 4.8 0.00 1.60 1.60 97 1011.1
20260506021206 7 78 6.4 9.7 0.00 1.60 1.60 97 1010.9
20260506020702 7 58 8.0 12.9 0.00 1.60 1.60 96 1010.8
20260506020200 7 46 8.0 11.3 0.00 1.60 1.60 96 1010.8
20260506015657 7 74 8.0 11.3 0.00 1.60 1.60 96 1010.5
20260506015156 7 71 9.7 11.3 0.18 1.60 1.60 96 1010.8
20260506014653 7 37 9.7 12.9 0.18 1.60 1.60 96 1010.8
20260506014148 7 75 8.0 11.3 0.00 1.57 1.57 96 1010.4
20260506013646 7 105 4.8 6.4 0.00 1.57 1.57 96 1010.3
20260506013143 7 69 11.3 12.9 0.00 1.57 1.57 95 1010.0
20260506012639 7 52 9.7 16.1 0.00 1.57 1.57 96 1010.3
20260506012136 7 59 8.0 11.3 0.00 1.57 1.57 95 1010.0
20260506011634 7 58 6.4 11.3 0.00 1.57 1.57 95 1010.1
20260506011130 7 138 6.4 6.4 0.00 1.57 1.57 96 1010.1
20260506010629 7 43 11.3 14.5 0.00 1.57 1.57 95 1010.1
20260506010125 7 52 14.5 14.5 0.00 1.57 1.57 94 1010.0
20260506005622 7 74 3.2 4.8 0.00 1.57 1.57 94 1010.0
20260506005118 7 34 4.8 6.4 0.00 1.57 1.57 95 1009.8
20260506004615 7 71 8.0 11.3 0.00 1.57 1.57 94 1009.6
20260506004113 7 59 16.1 16.1 0.00 1.57 1.57 93 1009.9
20260506003609 7 65 9.7 12.9 0.00 1.57 1.57 92 1010.1
20260506003105 7 89 11.3 12.9 0.00 1.57 1.57 92 1010.1
20260506002600 7 43 6.4 12.9 0.00 1.57 1.57 93 1010.0
20260506002057 7 50 9.7 12.9 0.00 1.57 1.57 92 1010.1
20260506001553 7 62 12.9 14.5 0.00 1.57 1.57 92 1009.9
20260506001050 7 74 11.3 16.1 0.00 1.57 1.57 91 1009.6
20260506000548 7 35 9.7 12.9 0.00 1.57 1.57 92 1009.6
20260506000045 7 38 14.5 20.9 0.00 1.57 1.57 93 1009.8
20260505235543 7 58 1.6 4.8 0.00 1.57 1.57 93 1009.7
20260505235040 7 42 11.3 20.9 0.00 1.57 1.57 93 1009.5
20260505234537 7 64 9.7 14.5 0.00 1.57 1.57 94 1009.3
20260505234033 7 51 8.0 12.9 0.00 1.57 1.57 94 1009.3
20260505233531 7 53 11.3 14.5 0.00 1.57 1.57 93 1009.1
20260505233028 7 76 4.8 9.7 0.00 1.57 1.57 93 1009.1
20260505232526 8 94 8.0 11.3 0.00 1.57 1.57 91 1009.2
20260505232023 8 54 6.4 9.7 0.00 1.57 1.57 91 1009.0
20260505231520 8 83 12.9 14.5 0.00 1.57 1.57 90 1009.0
20260505231019 8 34 12.9 16.1 0.00 1.57 1.57 89 1009.1
20260505230516 8 59 8.0 11.3 0.00 1.57 1.57 89 1009.4
20260505230012 8 59 11.3 14.5 0.00 1.57 1.57 89 1009.3
20260505225509 8 64 8.0 11.3 0.00 1.57 1.57 89 1009.1
20260505225005 8 24 3.2 4.8 0.00 1.57 1.57 89 1008.8
20260505224502 8 77 9.7 11.3 0.00 1.57 1.57 89 1008.7
20260505223959 8 65 16.1 17.7 0.00 1.57 1.57 88 1008.8
20260505223456 8 10 12.9 20.9 0.00 1.57 1.57 89 1008.3
20260505222953 8 31 9.7 14.5 0.00 1.57 1.57 88 1008.3
20260505222449 8 83 22.5 27.4 0.00 1.57 1.57 88 1008.5
20260505221944 8 57 3.2 6.4 0.00 1.57 1.57 88 1008.5
20260505221442 8 51 6.4 9.7 0.00 1.57 1.57 88 1008.4
20260505220939 8 73 6.4 11.3 0.00 1.57 1.57 87 1008.6
20260505220436 8 40 8.0 11.3 0.00 1.57 1.57 88 1008.9
20260505215934 8 117 6.4 6.4 0.00 1.57 1.57 88 1008.7
20260505215432 8 108 8.0 12.9 0.00 1.57 1.57 88 1008.7
20260505214929 8 49 9.7 11.3 0.00 1.57 1.57 88 1008.6
20260505214427 8 77 9.7 11.3 0.00 1.57 1.57 88 1008.6
20260505213924 8 41 12.9 20.9 0.00 1.57 1.57 90 1008.4
20260505213422 8 54 9.7 12.9 0.00 1.57 1.57 90 1008.3
20260505212917 8 81 8.0 12.9 0.00 1.57 1.57 90 1008.3
20260505212415 8 85 14.5 22.5 0.00 1.57 1.57 91 1008.4
20260505211911 8 90 9.7 11.3 0.00 1.57 1.57 92 1008.4
20260505211409 8 120 4.8 6.4 0.00 1.57 1.57 92 1008.5
20260505210905 8 36 11.3 16.1 0.00 1.57 1.57 92 1008.5
20260505210402 8 53 6.4 6.4 0.00 1.57 1.57 93 1008.5
20260505205859 9 39 9.7 11.3 0.00 1.57 1.57 94 1008.4
20260505205357 9 58 8.0 11.3 0.00 1.57 1.57 94 1008.5
20260505204854 9 49 8.0 12.9 0.00 1.57 1.57 94 1008.5
20260505204351 9 84 3.2 4.8 0.00 1.57 1.57 95 1008.5
20260505203849 10 126 6.4 6.4 0.00 1.57 1.57 95 1008.3
20260505203345 10 124 4.8 9.7 0.00 1.57 1.57 95 1008.2
20260505202841 10 71 6.4 16.1 0.00 1.57 1.57 94 1008.2
20260505202337 10 57 6.4 9.7 0.00 1.57 1.57 94 1007.9
20260505201834 10 67 8.0 12.9 0.00 1.57 1.57 93 1008.2
20260505201332 10 55 14.5 20.9 0.00 1.57 1.57 92 1008.4
20260505200830 10 70 12.9 17.7 0.00 1.57 1.57 93 1008.4
20260505200327 10 36 8.0 11.3 0.00 1.57 1.57 92 1008.2
20260505195822 10 39 6.4 11.3 0.00 1.57 1.57 91 1008.4
20260505195319 10 65 9.7 14.5 0.00 1.57 1.57 91 1008.5
20260505194817 10 89 6.4 9.7 0.00 1.57 1.57 91 1008.6
20260505194314 10 34 12.9 17.7 0.00 1.57 1.57 91 1008.4
20260505193809 10 70 8.0 11.3 0.00 1.57 1.57 91 1008.3
20260505193307 10 6 11.3 17.7 0.00 1.57 1.57 91 1007.8
20260505192805 10 58 9.7 12.9 0.00 1.57 1.57 90 1007.6
20260505192305 11 59 9.7 11.3 0.00 1.57 1.57 90 1007.8
20260505191800 10 31 11.3 16.1 0.00 1.57 1.57 90 1007.8
20260505191258 11 57 12.9 20.9 0.00 1.57 1.57 90 1007.7
20260505190754 11 101 6.4 9.7 0.00 1.57 1.57 91 1007.8
20260505190250 11 43 14.5 17.7 0.00 1.57 1.57 91 1007.8
20260505185746 11 68 8.0 11.3 0.00 1.57 1.57 92 1008.2
20260505185243 11 74 9.7 12.9 0.00 1.57 1.57 91 1008.5
20260505184739 11 56 4.8 9.7 0.00 1.57 1.57 91 1007.9
20260505184236 11 117 3.2 3.2 0.00 1.57 1.57 91 1007.8
20260505183733 11 38 9.7 14.5 0.00 1.57 1.57 90 1008.1
20260505183230 11 57 9.7 14.5 0.00 1.57 1.57 90 1007.8
20260505182726 11 59 9.7 12.9 0.00 1.57 1.57 91 1007.5
20260505182224 11 43 16.1 24.1 0.00 1.57 1.57 90 1007.3
20260505181720 11 96 6.4 9.7 0.00 1.57 1.57 92 1007.5
20260505181218 11 69 9.7 12.9 0.00 1.57 1.57 91 1007.5
20260505180714 11 56 6.4 9.7 0.00 1.57 1.57 91 1007.5
20260505180211 11 77 9.7 12.9 0.00 1.57 1.57 91 1007.6
20260505175707 11 41 12.9 14.5 0.00 1.57 1.57 90 1007.5
20260505175203 11 123 6.4 9.7 0.00 1.57 1.57 91 1007.6
20260505174700 12 49 16.1 16.1 0.00 1.57 1.57 89 1007.6
20260505174156 12 107 6.4 6.4 0.00 1.57 1.57 90 1007.5
20260505173653 12 45 6.4 9.7 0.00 1.57 1.57 90 1007.4
20260505173150 12 45 4.8 6.4 0.00 1.57 1.57 90 1007.2
20260505172647 12 47 16.1 20.9 0.00 1.57 1.57 89 1007.3
20260505172143 12 37 12.9 14.5 0.00 1.57 1.57 89 1007.5
20260505171638 12 38 9.7 12.9 0.00 1.57 1.57 88 1007.5
20260505171135 12 69 12.9 20.9 0.00 1.57 1.57 89 1007.4
20260505170632 12 77 8.0 11.3 0.00 1.57 1.57 89 1007.3
20260505170129 12 68 1.6 3.2 0.00 1.57 1.57 90 1007.4
20260505165624 12 118 4.8 6.4 0.00 1.57 1.57 89 1007.3
20260505165120 12 58 8.0 11.3 0.00 1.57 1.57 89 1007.1
20260505164615 12 50 9.7 12.9 0.00 1.57 1.57 90 1007.2
20260505164114 12 70 9.7 14.5 0.00 1.57 1.57 91 1007.2
20260505163612 12 105 6.4 9.7 0.00 1.57 1.57 90 1007.0
20260505163109 12 57 8.0 11.3 0.00 1.57 1.57 91 1007.3
20260505162606 12 144 6.4 9.7 0.00 1.57 1.57 92 1007.2
20260505162104 12 78 12.9 14.5 0.00 1.57 1.57 92 1007.0
20260505161601 13 96 4.8 6.4 0.00 1.57 1.57 93 1006.7
20260505161058 13 60 8.0 9.7 0.00 1.57 1.57 92 1006.7
20260505160555 13 64 8.0 11.3 0.00 1.57 1.57 93 1007.0
20260505153032 15 66 6.4 9.7 0.00 1.57 1.57 92 1006.7
20260505152529 15 86 4.8 6.4 0.00 1.57 1.57 92 1006.6
20260505152025 15 64 8.0 11.3 0.00 1.57 1.57 92 1006.5
20260505151520 15 71 4.8 4.8 0.00 1.57 1.57 93 1006.5
20260505151018 15 98 6.4 12.9 0.00 1.57 1.57 93 1006.6
20260505150514 15 71 6.4 6.4 0.00 1.57 1.57 93 1006.4
20260505140439 16 104 4.8 6.4 0.00 1.57 1.57 92 1006.3
20260505124852 15 112 4.8 4.8 0.13 1.57 1.57 96 1006.0
20260505124349 15 94 3.2 4.8 0.00 1.55 1.55 95 1006.1
20260505123845 15 114 1.6 3.2 0.00 1.55 1.55 95 1006.0
20260505123342 15 98 3.2 6.4 0.00 1.55 1.55 95 1006.0
20260505122838 15 91 8.0 9.7 0.00 1.55 1.55 95 1006.0
20260505122336 15 114 4.8 4.8 0.00 1.55 1.55 95 1005.5
20260505121832 15 84 4.8 6.4 0.00 1.55 1.55 96 1005.4
20260505121329 15 130 4.8 4.8 0.00 1.55 1.55 96 1005.6
20260505120825 15 103 8.0 9.7 0.00 1.55 1.55 95 1005.5
20260505120321 15 117 6.4 6.4 0.00 1.55 1.55 95 1005.5
20260505115820 15 136 8.0 11.3 0.00 1.55 1.55 95 1005.1
20260505115317 15 127 6.4 6.4 0.00 1.55 1.55 96 1005.4
20260505114815 15 119 3.2 3.2 0.00 1.55 1.55 96 1005.4
20260505114311 15 118 6.4 9.7 0.00 1.55 1.55 96 1005.4
20260505113808 15 85 3.2 4.8 0.00 1.55 1.55 96 1005.7
20260505113304 15 81 3.2 4.8 0.00 1.55 1.55 97 1005.5
20260505112754 15 125 0.0 1.6 0.00 1.55 1.55 97 1005.5
20260505112252 15 51 4.8 4.8 0.00 1.55 1.55 96 1005.1
20260505111747 15 141 3.2 3.2 0.00 1.55 1.55 94 1004.9
20260505111243 15 188 4.8 6.4 0.00 1.55 1.55 95 1004.6
20260505110739 15 125 9.7 12.9 0.48 1.55 1.55 96 1004.6
20260505110237 15 159 8.0 9.7 0.97 1.55 1.55 97 1004.7
20260505102212 15 154 1.6 1.6 0.00 1.37 1.37 99 1005.4
20260505101711 15 160 0.0 1.6 0.00 1.37 1.37 99 1005.2
20260505101206 15 162 0.0 0.0 0.00 1.37 1.37 99 1005.2
20260505100703 15 156 0.0 1.6 0.00 1.37 1.37 99 1005.4
20260505100200 15 157 0.0 0.0 0.00 1.37 1.37 99 1005.1
20260505095655 15 173 3.2 3.2 0.00 1.37 1.37 99 1005.2
20260505095154 15 180 4.8 4.8 0.30 1.37 1.37 99 1005.2
20260505094649 15 146 3.2 4.8 0.30 1.37 1.37 99 1005.2
20260505094146 15 177 3.2 3.2 0.18 1.32 1.32 99 1005.4
20260505093642 15 167 3.2 4.8 0.30 1.32 1.32 99 1005.2
20260505093140 15 161 0.0 0.0 0.43 1.30 1.30 99 1005.5
20260505092636 15 166 0.0 1.6 0.30 1.27 1.27 99 1005.4
20260505092135 15 164 3.2 3.2 0.18 1.22 1.22 99 1005.1
20260505091632 15 161 0.0 0.0 0.18 1.22 1.22 98 1005.9
20260505091130 15 186 4.8 4.8 0.30 1.19 1.19 98 1005.1
20260505090627 15 171 6.4 6.4 0.61 1.19 1.19 98 1004.9
20260505090125 15 166 4.8 4.8 0.61 1.17 1.17 98 1005.2
20260505085622 15 167 6.4 11.3 0.48 1.09 1.09 98 1005.5
20260505085120 15 156 11.3 12.9 0.30 1.07 1.07 98 1005.4
20260505084618 15 183 4.8 4.8 0.00 1.02 1.02 98 1006.0
20260505084116 15 185 9.7 11.3 0.13 1.02 1.02 98 1005.9
20260505083613 15 170 3.2 3.2 0.30 1.02 1.02 98 1006.3
20260505083110 15 148 3.2 3.2 0.30 0.99 0.99 98 1005.9
20260505082605 15 155 1.6 1.6 0.30 0.97 0.97 98 1006.3
20260505082103 15 184 3.2 4.8 0.48 0.94 0.94 98 1006.8
20260505081559 15 208 4.8 4.8 0.30 0.91 0.91 98 1006.6
20260505081056 15 139 1.6 1.6 0.00 0.86 0.86 98 1006.1
20260505080552 15 165 1.6 1.6 0.18 0.86 0.86 98 1006.4
20260505080049 15 151 3.2 3.2 0.30 0.86 0.86 98 1005.6
20260505075545 15 101 3.2 4.8 0.43 0.84 0.84 97 1005.7
20260505075042 15 154 0.0 1.6 0.61 0.84 0.84 97 1006.4
20260505074539 15 132 1.6 3.2 0.43 0.79 0.79 97 1006.4
20260505074036 15 155 0.0 1.6 0.43 0.74 0.74 97 1007.1
20260505073533 15 208 3.2 4.8 0.48 0.71 0.71 97 1007.5
20260505073032 15 292 6.4 6.4 0.18 0.66 0.66 97 1007.4
20260505072527 15 155 0.0 0.0 0.13 0.64 0.64 96 1006.9
20260505072023 15 162 0.0 0.0 0.61 0.64 0.64 96 1007.4
20260505071519 15 227 3.2 4.8 0.97 0.61 0.61 96 1007.5
20260505071018 15 180 3.2 4.8 1.55 0.56 0.56 95 1007.4
20260505070515 16 208 6.4 6.4 1.32 0.46 0.46 95 1008.1
20260505070010 16 161 0.0 0.0 0.48 0.28 0.28 94 1007.8
20260505065506 16 170 1.6 1.6 0.36 0.23 0.23 93 1007.7
20260505065003 16 199 6.4 9.7 0.48 0.23 0.23 93 1007.2
20260505064500 16 215 6.4 6.4 0.30 0.18 0.18 91 1007.4
20260505063959 16 179 1.6 3.2 0.30 0.15 0.15 90 1006.4
20260505063455 16 195 6.4 6.4 0.30 0.13 0.13 90 1006.7
20260505062951 16 192 6.4 9.7 0.30 0.10 0.10 87 1006.2
20260505062448 16 187 6.4 6.4 0.30 0.08 0.08 87 1005.6
20260505061945 17 204 16.1 17.7 0.30 0.05 0.05 85 1005.9
20260505061443 17 175 6.4 9.7 0.13 0.03 0.03 82 1005.5
20260505060940 17 194 9.7 12.9 0.00 0.00 0.00 82 1005.5
20260505060437 17 185 24.1 27.4 0.00 0.00 0.00 78 1005.4
20260505055934 17 190 16.1 17.7 0.00 0.00 0.00 78 1005.6
20260505055430 17 201 14.5 17.7 0.00 0.00 0.00 78 1005.8
20260505054927 18 196 11.3 12.9 0.00 0.00 0.00 77 1005.8
20260505054424 18 194 8.0 9.7 0.00 0.00 0.00 75 1006.0
20260505053922 18 179 8.0 9.7 0.00 0.00 0.00 74 1006.1
20260505053419 18 173 3.2 3.2 0.00 0.00 0.00 74 1006.4
20260505052916 18 170 3.2 3.2 0.00 0.00 0.00 74 1006.1
20260505052412 18 161 3.2 4.8 0.00 0.00 0.00 75 1005.9
20260505051910 18 162 1.6 3.2 0.00 0.00 0.00 74 1006.0
20260505051407 18 162 0.0 0.0 0.00 0.00 0.00 74 1006.0
20260505050905 18 174 3.2 3.2 0.00 0.00 0.00 73 1005.8
20260505050403 18 144 4.8 6.4 0.00 0.00 0.00 73 1006.0
20260505041330 18 175 3.2 6.4 0.00 0.00 0.00 74 1006.3
20260505040827 18 199 6.4 9.7 0.00 0.00 0.00 73 1006.3
20260505040325 18 157 0.0 0.0 0.00 0.00 0.00 74 1006.3
20260505035822 18 166 3.2 3.2 0.00 0.00 0.00 74 1006.5
20260505035317 18 154 1.6 1.6 0.00 0.00 0.00 74 1006.6
20260505034815 18 154 1.6 3.2 0.00 0.00 0.00 73 1006.6
20260505034311 18 160 1.6 1.6 0.00 0.00 0.00 74 1006.6
20260505033809 18 152 3.2 3.2 0.00 0.00 0.00 74 1006.7
20260505033305 18 156 1.6 1.6 0.00 0.00 0.00 73 1006.7
20260505032804 18 157 0.0 0.0 0.00 0.00 0.00 73 1006.9
20260505032259 18 181 4.8 4.8 0.00 0.00 0.00 73 1006.7
20260505031757 18 161 3.2 3.2 0.00 0.00 0.00 73 1006.7
20260505031253 18 157 0.0 1.6 0.00 0.00 0.00 73 1006.8
20260505030750 18 155 1.6 1.6 0.00 0.00 0.00 73 1006.7
20260505030247 18 155 3.2 3.2 0.00 0.00 0.00 71 1006.8